RYR84KM EGGW-LEMI

Flight info

Callsign RYR84KM
Flight time 2h 10m
Altitude 37000
Route RODNI N27 ICTAM Q63 CPT N859 VAPID UN859 SOPIL DCT BALAN DCT LMG DCT PIMQO DCT AGN DCT ANETO DCT POSSY DCT XIMPE DCT RIMES N860 VLC L34 ALT
Aircraft B738/M-SDE3FGILRWY/SB1

Departure

Time 2026-04-21 20:40
Airport London Luton Airport (EGGW)

Arrival

Time 2026-04-21 22:50
Airport Region of Murcia International Airport (LEMI)
Time Latitude Longitude Altitude Speed Heading
2026-04-21 20:05 51.88053 -0.37789 522 ft 0 kts 128°
2026-04-21 20:27 51.88060 -0.37803 522 ft 2 kts 128°
2026-04-21 20:27 51.88068 -0.37822 522 ft 4 kts 54°
2026-04-21 20:27 51.88050 -0.37848 522 ft 4 kts 36°
2026-04-21 20:28 51.88029 -0.37873 522 ft 2 kts 36°
2026-04-21 20:28 51.88028 -0.37874 522 ft 0 kts 36°
2026-04-21 20:31 51.88061 -0.37860 522 ft 10 kts 11°
2026-04-21 20:31 51.88124 -0.37795 522 ft 11 kts 43°
2026-04-21 20:31 51.88169 -0.37696 522 ft 11 kts 60°
2026-04-21 20:31 51.88210 -0.37567 515 ft 15 kts 81°
2026-04-21 20:32 51.88214 -0.37408 515 ft 14 kts 73°
2026-04-21 20:32 51.88233 -0.37278 516 ft 10 kts 102°
2026-04-21 20:32 51.88179 -0.37215 515 ft 11 kts 163°
2026-04-21 20:32 51.88094 -0.37174 508 ft 15 kts 162°
2026-04-21 20:33 51.87994 -0.37119 507 ft 15 kts 162°
2026-04-21 20:33 51.87897 -0.37068 508 ft 14 kts 161°
2026-04-21 20:33 51.87805 -0.37019 514 ft 14 kts 162°
2026-04-21 20:33 51.87708 -0.36967 521 ft 15 kts 161°
2026-04-21 20:34 51.87626 -0.36992 521 ft 15 kts 245°
2026-04-21 20:34 51.87594 -0.37177 521 ft 19 kts 254°
2026-04-21 20:34 51.87582 -0.37380 521 ft 15 kts 269°
2026-04-21 20:34 51.87516 -0.37508 520 ft 15 kts 237°
2026-04-21 20:35 51.87481 -0.37672 522 ft 16 kts 255°
2026-04-21 20:35 51.87448 -0.37862 522 ft 17 kts 254°
2026-04-21 20:35 51.87418 -0.38005 523 ft 10 kts 238°
2026-04-21 20:35 51.87370 -0.38064 522 ft 6 kts 206°
2026-04-21 20:36 51.87358 -0.38074 522 ft 0 kts 206°
2026-04-21 20:38 51.87324 -0.38101 521 ft 11 kts 205°
2026-04-21 20:38 51.87259 -0.38086 522 ft 8 kts 127°
2026-04-21 20:38 51.87260 -0.38019 523 ft 2 kts 76°
2026-04-21 20:39 51.87304 -0.37764 522 ft 64 kts 75°
2026-04-21 20:39 51.87500 -0.36630 529 ft 141 kts 75°
2026-04-21 20:40 51.87765 -0.34985 1239 ft 156 kts 75°
2026-04-21 20:40 51.88036 -0.33299 2472 ft 149 kts 76°
2026-04-21 20:40 51.88320 -0.31721 3496 ft 148 kts 76°
2026-04-21 20:40 51.88639 -0.29982 3939 ft 174 kts 76°
2026-04-21 20:41 51.89011 -0.27937 4030 ft 205 kts 75°
2026-04-21 20:41 51.89189 -0.25576 4007 ft 215 kts 102°
2026-04-21 20:41 51.88347 -0.23504 4034 ft 241 kts 138°
2026-04-21 20:41 51.86734 -0.22572 4016 ft 260 kts 174°
2026-04-21 20:42 51.84975 -0.23426 4038 ft 276 kts 211°
2026-04-21 20:42 51.83763 -0.25851 4039 ft 286 kts 247°
2026-04-21 20:42 51.83397 -0.29022 4046 ft 289 kts 264°
2026-04-21 20:42 51.83141 -0.32250 4032 ft 290 kts 259°
2026-04-21 20:43 51.82742 -0.35450 4023 ft 290 kts 256°
2026-04-21 20:43 51.82251 -0.38608 4022 ft 290 kts 253°
2026-04-21 20:43 51.81723 -0.41747 4021 ft 289 kts 253°
2026-04-21 20:43 51.81190 -0.44872 4044 ft 289 kts 254°
2026-04-21 20:44 51.80700 -0.48048 4477 ft 293 kts 255°
2026-04-21 20:44 51.80223 -0.51238 4995 ft 294 kts 255°
2026-04-21 20:44 51.79741 -0.54450 5093 ft 293 kts 255°
2026-04-21 20:44 51.79256 -0.57650 5676 ft 295 kts 255°
2026-04-21 20:45 51.78767 -0.60859 6683 ft 293 kts 255°
2026-04-21 20:45 51.78277 -0.64057 7599 ft 295 kts 255°
2026-04-21 20:45 51.77782 -0.67290 8443 ft 299 kts 255°
2026-04-21 20:45 51.77250 -0.70540 9318 ft 301 kts 247°
2026-04-21 20:46 51.76135 -0.73362 10156 ft 299 kts 226°
2026-04-21 20:46 51.74732 -0.75869 10825 ft 308 kts 225°
2026-04-21 20:46 51.73225 -0.78518 11010 ft 333 kts 225°
2026-04-21 20:46 51.71624 -0.81370 11404 ft 350 kts 226°
2026-04-21 20:47 51.69988 -0.84333 12103 ft 356 kts 227°
2026-04-21 20:47 51.68350 -0.87340 12917 ft 358 kts 227°
2026-04-21 20:47 51.66703 -0.90383 13686 ft 363 kts 228°
2026-04-21 20:47 51.65035 -0.93477 14382 ft 368 kts 228°
2026-04-21 20:48 51.63355 -0.96595 15148 ft 370 kts 229°
2026-04-21 20:48 51.61668 -0.99725 15935 ft 370 kts 229°
2026-04-21 20:48 51.59969 -1.02873 16592 ft 375 kts 229°
2026-04-21 20:48 51.58242 -1.06070 17242 ft 379 kts 230°
2026-04-21 20:49 51.56513 -1.09268 18085 ft 378 kts 231°
2026-04-21 20:49 51.54784 -1.12457 18826 ft 380 kts 231°
2026-04-21 20:49 51.53631 -1.14582 19193 ft 382 kts 231°
2026-04-21 20:49 51.51827 -1.17744 19768 ft 388 kts 224°
2026-04-21 20:50 51.49474 -1.19926 20297 ft 399 kts 199°
2026-04-21 20:50 51.46697 -1.20421 20831 ft 409 kts 175°
2026-04-21 20:50 51.43944 -1.19157 21310 ft 418 kts 154°
2026-04-21 20:50 51.41402 -1.16821 21778 ft 425 kts 149°
2026-04-21 20:51 51.38849 -1.14360 22187 ft 431 kts 151°
2026-04-21 20:51 51.36161 -1.12164 22629 ft 436 kts 156°
2026-04-21 20:51 51.33372 -1.10184 23101 ft 441 kts 158°
2026-04-21 20:51 51.30541 -1.08219 23555 ft 446 kts 158°
2026-04-21 20:52 51.27695 -1.06189 24006 ft 450 kts 157°
2026-04-21 20:52 51.24838 -1.04111 24445 ft 453 kts 157°
2026-04-21 20:52 51.21970 -1.02015 24920 ft 454 kts 157°
2026-04-21 20:52 51.19087 -0.99916 25375 ft 456 kts 158°
2026-04-21 20:53 51.16192 -0.97812 25800 ft 459 kts 158°
2026-04-21 20:53 51.13277 -0.95699 26213 ft 462 kts 158°
2026-04-21 20:53 51.10342 -0.93575 26601 ft 466 kts 158°
2026-04-21 20:53 51.07368 -0.91426 26843 ft 473 kts 158°
2026-04-21 20:54 51.04365 -0.89258 27265 ft 474 kts 158°
2026-04-21 20:54 51.01362 -0.87092 27736 ft 475 kts 158°
2026-04-21 20:54 50.98348 -0.84921 28142 ft 476 kts 158°
2026-04-21 20:54 50.95322 -0.82744 28496 ft 479 kts 158°
2026-04-21 20:55 50.92278 -0.80558 28843 ft 482 kts 158°
2026-04-21 20:55 50.89214 -0.78361 29201 ft 484 kts 158°
2026-04-21 20:55 50.86140 -0.76151 29556 ft 486 kts 158°
2026-04-21 20:55 50.83157 -0.73598 29943 ft 490 kts 150°
2026-04-21 20:56 50.80277 -0.70693 30282 ft 492 kts 149°
2026-04-21 20:56 50.77409 -0.67696 30532 ft 495 kts 148°
2026-04-21 20:56 50.74534 -0.64674 30790 ft 498 kts 149°
2026-04-21 20:56 50.71645 -0.61662 31119 ft 498 kts 149°
2026-04-21 20:57 50.68752 -0.58679 31533 ft 495 kts 149°
2026-04-21 20:57 50.65871 -0.55737 31971 ft 493 kts 150°
2026-04-21 20:57 50.62991 -0.52819 32341 ft 491 kts 150°
2026-04-21 20:57 50.60115 -0.49917 32691 ft 491 kts 150°
2026-04-21 20:58 50.57242 -0.47026 33031 ft 490 kts 150°
2026-04-21 20:58 50.54369 -0.44138 33379 ft 490 kts 150°
2026-04-21 20:58 50.51502 -0.41260 33739 ft 489 kts 150°
2026-04-21 20:58 50.48639 -0.38387 34085 ft 488 kts 150°
2026-04-21 20:59 50.45779 -0.35520 34393 ft 487 kts 150°
2026-04-21 20:59 50.42924 -0.32662 34691 ft 486 kts 150°
2026-04-21 20:59 50.40080 -0.29820 35043 ft 483 kts 150°
2026-04-21 20:59 50.37262 -0.27005 35444 ft 479 kts 150°
2026-04-21 21:00 50.34454 -0.24207 35722 ft 478 kts 150°
2026-04-21 21:00 50.31641 -0.21408 35906 ft 479 kts 150°
2026-04-21 21:00 50.28823 -0.18609 36142 ft 480 kts 150°
2026-04-21 21:00 50.26012 -0.15819 36440 ft 478 kts 150°
2026-04-21 21:01 50.23213 -0.13045 36769 ft 475 kts 150°
2026-04-21 21:01 50.20428 -0.10288 37097 ft 473 kts 150°
2026-04-21 21:01 50.17652 -0.07543 37246 ft 474 kts 150°
2026-04-21 21:01 50.14852 -0.04781 37225 ft 478 kts 150°
2026-04-21 21:02 50.09072 0.00276 37245 ft 481 kts 161°
2026-04-21 21:02 50.02585 0.03106 37239 ft 484 kts 170°
2026-04-21 21:03 49.96025 0.05533 37195 ft 482 kts 170°
2026-04-21 21:03 49.89582 0.08007 37206 ft 473 kts 169°
2026-04-21 21:04 49.83248 0.10482 37208 ft 473 kts 169°
2026-04-21 21:04 49.76875 0.12969 37196 ft 473 kts 169°
2026-04-21 21:05 49.70490 0.15450 37191 ft 473 kts 169°
2026-04-21 21:05 49.64108 0.17965 37193 ft 474 kts 169°
2026-04-21 21:06 49.57726 0.20566 37184 ft 475 kts 169°
2026-04-21 21:06 49.51335 0.23165 37172 ft 475 kts 169°
2026-04-21 21:07 49.44937 0.25746 37179 ft 475 kts 169°
2026-04-21 21:07 49.38538 0.28318 37198 ft 475 kts 169°
2026-04-21 21:08 49.32134 0.30885 37177 ft 476 kts 169°
2026-04-21 21:08 49.25744 0.33512 37190 ft 476 kts 168°
2026-04-21 21:09 49.19363 0.36216 37159 ft 475 kts 168°
2026-04-21 21:09 49.12990 0.38906 37166 ft 475 kts 168°
2026-04-21 21:10 49.06623 0.41572 37150 ft 474 kts 168°
2026-04-21 21:10 49.00261 0.44224 37183 ft 473 kts 169°
2026-04-21 21:11 48.93903 0.46868 37161 ft 473 kts 169°
2026-04-21 21:11 48.87551 0.49503 37158 ft 473 kts 169°
2026-04-21 21:12 48.81192 0.52135 37153 ft 474 kts 169°
2026-04-21 21:12 48.74821 0.54713 37160 ft 474 kts 169°
2026-04-21 21:13 48.68434 0.57189 37145 ft 474 kts 170°
2026-04-21 21:13 48.62086 0.59651 37143 ft 474 kts 169°
2026-04-21 21:14 48.55692 0.62142 37135 ft 475 kts 169°
2026-04-21 21:14 48.49301 0.64648 37138 ft 475 kts 169°
2026-04-21 21:15 48.42917 0.67253 37116 ft 475 kts 169°
2026-04-21 21:15 48.36542 0.69856 37119 ft 475 kts 169°
2026-04-21 21:16 48.30161 0.72439 37122 ft 475 kts 169°
2026-04-21 21:16 48.23769 0.75011 37134 ft 479 kts 169°
2026-04-21 21:17 48.17280 0.77570 37127 ft 484 kts 169°
2026-04-21 21:17 48.10747 0.80130 37109 ft 486 kts 169°
2026-04-21 21:18 48.04191 0.82700 37100 ft 487 kts 169°
2026-04-21 21:18 47.97634 0.85267 37111 ft 487 kts 169°
2026-04-21 21:19 47.91069 0.87830 37099 ft 488 kts 169°
2026-04-21 21:19 47.84507 0.90386 37091 ft 487 kts 169°
2026-04-21 21:20 47.77949 0.92928 37077 ft 487 kts 169°
2026-04-21 21:20 47.71407 0.95455 37077 ft 485 kts 169°
2026-04-21 21:21 47.64883 0.97970 37081 ft 484 kts 169°
2026-04-21 21:21 47.58371 1.00474 37062 ft 483 kts 169°
2026-04-21 21:22 47.51868 1.02969 37073 ft 482 kts 169°
2026-04-21 21:22 47.45375 1.05452 37070 ft 481 kts 170°
2026-04-21 21:23 47.38817 1.06511 37078 ft 470 kts 186°
2026-04-21 21:23 47.32326 1.06250 37062 ft 470 kts 186°
2026-04-21 21:24 47.25787 1.06020 37064 ft 470 kts 186°
2026-04-21 21:24 47.19242 1.05862 37058 ft 470 kts 186°
2026-04-21 21:25 47.12695 1.05723 37050 ft 470 kts 186°
2026-04-21 21:25 47.06178 1.05318 37048 ft 467 kts 189°
2026-04-21 21:26 46.99712 1.04462 37046 ft 466 kts 190°
2026-04-21 21:26 46.93253 1.03575 37037 ft 466 kts 190°
2026-04-21 21:27 46.86793 1.02750 37039 ft 466 kts 189°
2026-04-21 21:27 46.80330 1.01963 37039 ft 466 kts 189°
2026-04-21 21:28 46.73870 1.01187 37035 ft 466 kts 189°
2026-04-21 21:29 46.64179 1.00025 37023 ft 466 kts 189°
2026-04-21 21:29 46.57718 0.99251 37026 ft 466 kts 189°
2026-04-21 21:30 46.51262 0.98479 37008 ft 465 kts 189°
2026-04-21 21:30 46.44814 0.97710 37011 ft 465 kts 189°
2026-04-21 21:31 46.38370 0.96943 37002 ft 464 kts 189°
2026-04-21 21:31 46.31933 0.96179 36991 ft 464 kts 189°
2026-04-21 21:32 46.25503 0.95417 36998 ft 463 kts 189°
2026-04-21 21:32 46.19077 0.94657 36985 ft 463 kts 189°
2026-04-21 21:33 46.12651 0.93900 36973 ft 463 kts 189°
2026-04-21 21:33 46.06240 0.93146 36964 ft 462 kts 189°
2026-04-21 21:34 45.99837 0.92394 36963 ft 462 kts 189°
2026-04-21 21:34 45.94518 0.91771 36951 ft 461 kts 189°
2026-04-21 21:35 45.88132 0.91026 36954 ft 460 kts 189°
2026-04-21 21:35 45.80720 0.90162 36946 ft 459 kts 189°
2026-04-21 21:36 45.75389 0.89541 36938 ft 459 kts 189°
2026-04-21 21:36 45.69034 0.88804 36931 ft 458 kts 189°
2026-04-21 21:37 45.62727 0.88074 36931 ft 457 kts 189°
2026-04-21 21:37 45.56381 0.87340 36917 ft 457 kts 189°
2026-04-21 21:38 45.50041 0.86609 36905 ft 457 kts 189°
2026-04-21 21:38 45.43702 0.85879 36897 ft 457 kts 189°
2026-04-21 21:39 45.37359 0.85151 36886 ft 457 kts 189°
2026-04-21 21:39 45.31018 0.84426 36886 ft 457 kts 189°
2026-04-21 21:40 45.24684 0.83703 36887 ft 457 kts 189°
2026-04-21 21:40 45.18349 0.82980 36869 ft 457 kts 189°
2026-04-21 21:41 45.12018 0.82261 36884 ft 456 kts 189°
2026-04-21 21:41 45.05688 0.81542 36883 ft 456 kts 189°
2026-04-21 21:42 44.99362 0.80826 36862 ft 456 kts 189°
2026-04-21 21:42 44.93037 0.80112 36861 ft 455 kts 189°
2026-04-21 21:43 44.86722 0.79401 36863 ft 455 kts 189°
2026-04-21 21:43 44.80411 0.78692 36860 ft 455 kts 189°
2026-04-21 21:44 44.74145 0.77987 36859 ft 455 kts 189°
2026-04-21 21:44 44.67838 0.77281 36853 ft 455 kts 189°
2026-04-21 21:45 44.61531 0.76575 36855 ft 455 kts 189°
2026-04-21 21:45 44.55236 0.75874 36848 ft 453 kts 189°
2026-04-21 21:46 44.48968 0.75178 36836 ft 451 kts 189°
2026-04-21 21:46 44.42723 0.74485 36837 ft 449 kts 189°
2026-04-21 21:47 44.36495 0.73794 36830 ft 448 kts 189°
2026-04-21 21:47 44.30278 0.73107 36836 ft 448 kts 189°
2026-04-21 21:48 44.24067 0.72421 36836 ft 448 kts 189°
2026-04-21 21:48 44.17852 0.71737 36825 ft 448 kts 189°
2026-04-21 21:49 44.11638 0.71054 36827 ft 448 kts 189°
2026-04-21 21:49 44.05425 0.70373 36829 ft 448 kts 189°
2026-04-21 21:50 43.99210 0.69693 36848 ft 448 kts 189°
2026-04-21 21:50 43.92996 0.69015 36828 ft 448 kts 189°
2026-04-21 21:51 43.86829 0.68344 36828 ft 448 kts 189°
2026-04-21 21:51 43.80618 0.67668 36822 ft 448 kts 188°
2026-04-21 21:52 43.74397 0.66993 36833 ft 449 kts 188°
2026-04-21 21:52 43.68160 0.66317 36830 ft 450 kts 188°
2026-04-21 21:53 43.61913 0.65643 36824 ft 451 kts 188°
2026-04-21 21:53 43.55658 0.64968 36839 ft 451 kts 188°
2026-04-21 21:54 43.49396 0.64295 36840 ft 452 kts 188°
2026-04-21 21:54 43.43127 0.63622 36843 ft 452 kts 188°
2026-04-21 21:55 43.36863 0.62952 36848 ft 451 kts 188°
2026-04-21 21:55 43.30602 0.62282 36852 ft 451 kts 188°
2026-04-21 21:56 43.24341 0.61615 36862 ft 451 kts 188°
2026-04-21 21:56 43.18076 0.60948 36874 ft 451 kts 188°
2026-04-21 21:57 43.11819 0.60283 36876 ft 451 kts 188°
2026-04-21 21:57 43.05563 0.59620 36898 ft 451 kts 188°
2026-04-21 21:58 42.99307 0.58957 36903 ft 451 kts 188°
2026-04-21 21:58 42.93047 0.58294 36912 ft 451 kts 188°
2026-04-21 21:59 42.86781 0.57636 36878 ft 451 kts 187°
2026-04-21 21:59 42.80530 0.56982 36931 ft 451 kts 188°
2026-04-21 22:00 42.74272 0.56322 36950 ft 451 kts 188°
2026-04-21 22:00 42.68171 0.54976 36990 ft 444 kts 201°
2026-04-21 22:01 42.62551 0.51615 36947 ft 441 kts 209°
2026-04-21 22:01 42.57032 0.47989 36985 ft 442 kts 208°
2026-04-21 22:02 42.51463 0.44398 36991 ft 445 kts 208°
2026-04-21 22:02 42.45850 0.40819 36983 ft 447 kts 208°
2026-04-21 22:03 42.40223 0.37245 36952 ft 446 kts 207°
2026-04-21 22:03 42.34614 0.33688 36957 ft 444 kts 207°
2026-04-21 22:04 42.29026 0.30149 36941 ft 443 kts 207°
2026-04-21 22:04 42.23458 0.26630 36942 ft 442 kts 207°
2026-04-21 22:05 42.17896 0.23120 36918 ft 441 kts 207°
2026-04-21 22:05 42.12344 0.19624 36931 ft 440 kts 207°
2026-04-21 22:06 42.06751 0.16286 36924 ft 441 kts 200°
2026-04-21 22:06 42.00701 0.14741 36928 ft 445 kts 188°
2026-04-21 22:07 41.94539 0.13894 36920 ft 445 kts 188°
2026-04-21 22:07 41.88383 0.13027 36914 ft 445 kts 188°
2026-04-21 22:08 41.82223 0.12121 36911 ft 445 kts 188°
2026-04-21 22:08 41.76104 0.11206 36902 ft 446 kts 189°
2026-04-21 22:09 41.69941 0.10284 36916 ft 446 kts 189°
2026-04-21 22:09 41.63759 0.09362 36910 ft 447 kts 189°
2026-04-21 22:10 41.57571 0.08442 36899 ft 448 kts 189°
2026-04-21 22:10 41.51372 0.07523 36893 ft 449 kts 189°
2026-04-21 22:11 41.45158 0.06603 36903 ft 450 kts 189°
2026-04-21 22:11 41.38931 0.05682 36892 ft 451 kts 189°
2026-04-21 22:12 41.32695 0.04763 36879 ft 451 kts 189°
2026-04-21 22:12 41.26447 0.03843 36898 ft 452 kts 189°
2026-04-21 22:13 41.20181 0.02922 36895 ft 453 kts 189°
2026-04-21 22:13 41.13908 0.02002 36898 ft 454 kts 189°
2026-04-21 22:14 41.07629 0.01084 36899 ft 454 kts 189°
2026-04-21 22:14 41.01349 0.00171 36898 ft 454 kts 189°
2026-04-21 22:15 40.95069 -0.00739 36907 ft 454 kts 189°
2026-04-21 22:15 40.88799 -0.01646 36908 ft 453 kts 189°
2026-04-21 22:16 40.82535 -0.02552 36917 ft 453 kts 189°
2026-04-21 22:16 40.76278 -0.03455 36921 ft 452 kts 189°
2026-04-21 22:17 40.70022 -0.04357 36941 ft 452 kts 189°
2026-04-21 22:17 40.63805 -0.05251 36943 ft 452 kts 189°
2026-04-21 22:18 40.57549 -0.06149 36940 ft 452 kts 189°
2026-04-21 22:18 40.51464 -0.07929 36952 ft 447 kts 200°
2026-04-21 22:19 40.45538 -0.10388 36923 ft 446 kts 200°
2026-04-21 22:19 40.39602 -0.12793 36923 ft 446 kts 200°
2026-04-21 22:20 40.33656 -0.15138 36915 ft 446 kts 200°
2026-04-21 22:20 40.27713 -0.17470 36917 ft 446 kts 200°
2026-04-21 22:21 40.21780 -0.19804 36917 ft 445 kts 200°
2026-04-21 22:21 40.15870 -0.22141 36922 ft 439 kts 200°
2026-04-21 22:21 40.12991 -0.23276 36915 ft 425 kts 200°
2026-04-21 22:22 40.10197 -0.24376 36658 ft 416 kts 200°
2026-04-21 22:22 40.07462 -0.25455 36442 ft 407 kts 200°
2026-04-21 22:22 40.04763 -0.26521 36065 ft 403 kts 200°
2026-04-21 22:22 40.02094 -0.27573 35702 ft 399 kts 201°
2026-04-21 22:23 39.99446 -0.28614 35324 ft 396 kts 201°
2026-04-21 22:23 39.96818 -0.29631 34967 ft 393 kts 201°
2026-04-21 22:23 39.94204 -0.30636 34616 ft 390 kts 201°
2026-04-21 22:23 39.91612 -0.31631 34252 ft 387 kts 201°
2026-04-21 22:24 39.89041 -0.32619 33882 ft 384 kts 201°
2026-04-21 22:24 39.87347 -0.33274 33611 ft 382 kts 201°
2026-04-21 22:24 39.84807 -0.34262 33245 ft 379 kts 201°
2026-04-21 22:24 39.82290 -0.35243 32874 ft 376 kts 201°
2026-04-21 22:25 39.79763 -0.36229 32533 ft 386 kts 201°
2026-04-21 22:25 39.77128 -0.37262 32181 ft 405 kts 200°
2026-04-21 22:25 39.74374 -0.38340 31798 ft 422 kts 200°
2026-04-21 22:25 39.71520 -0.39450 31377 ft 430 kts 200°
2026-04-21 22:26 39.68661 -0.40556 30962 ft 428 kts 200°
2026-04-21 22:26 39.65810 -0.41655 30543 ft 426 kts 199°
2026-04-21 22:26 39.62975 -0.42748 30138 ft 424 kts 199°
2026-04-21 22:26 39.60155 -0.43837 29686 ft 422 kts 199°
2026-04-21 22:27 39.57351 -0.44921 29232 ft 419 kts 199°
2026-04-21 22:27 39.54605 -0.45982 28837 ft 416 kts 199°
2026-04-21 22:27 39.51843 -0.47047 28411 ft 413 kts 199°
2026-04-21 22:27 39.49086 -0.48059 27995 ft 412 kts 195°
2026-04-21 22:28 39.46249 -0.48592 27573 ft 413 kts 186°
2026-04-21 22:28 39.43391 -0.48791 27170 ft 411 kts 186°
2026-04-21 22:28 39.40544 -0.48965 26761 ft 409 kts 186°
2026-04-21 22:28 39.37653 -0.49145 26375 ft 425 kts 186°
2026-04-21 22:29 39.34633 -0.49344 25931 ft 442 kts 186°
2026-04-21 22:29 39.31518 -0.49557 25487 ft 453 kts 186°
2026-04-21 22:29 39.28359 -0.49777 25027 ft 454 kts 186°
2026-04-21 22:29 39.25225 -0.49996 24574 ft 448 kts 186°
2026-04-21 22:30 39.22130 -0.50214 24128 ft 443 kts 186°
2026-04-21 22:30 39.19065 -0.50432 23690 ft 439 kts 186°
2026-04-21 22:30 39.16021 -0.50651 23190 ft 436 kts 186°
2026-04-21 22:30 39.13000 -0.50868 22708 ft 433 kts 186°
2026-04-21 22:31 39.10002 -0.51084 22243 ft 430 kts 186°
2026-04-21 22:31 39.07024 -0.51299 21800 ft 428 kts 186°
2026-04-21 22:31 39.04058 -0.51512 21365 ft 426 kts 186°
2026-04-21 22:31 39.01103 -0.51725 20929 ft 425 kts 186°
2026-04-21 22:32 38.98153 -0.51937 20499 ft 424 kts 186°
2026-04-21 22:32 38.95207 -0.52148 20056 ft 424 kts 186°
2026-04-21 22:32 38.92268 -0.52359 19635 ft 423 kts 186°
2026-04-21 22:32 38.89330 -0.52569 19204 ft 422 kts 186°
2026-04-21 22:33 38.86399 -0.52778 18759 ft 422 kts 186°
2026-04-21 22:33 38.83476 -0.52986 18321 ft 420 kts 186°
2026-04-21 22:33 38.80561 -0.53194 17838 ft 418 kts 186°
2026-04-21 22:33 38.77674 -0.53400 17387 ft 414 kts 186°
2026-04-21 22:34 38.74810 -0.53603 16954 ft 410 kts 186°
2026-04-21 22:34 38.71974 -0.53805 16533 ft 406 kts 186°
2026-04-21 22:34 38.69179 -0.54003 16106 ft 395 kts 186°
2026-04-21 22:34 38.66500 -0.54190 15720 ft 376 kts 186°
2026-04-21 22:35 38.63945 -0.54368 15341 ft 360 kts 186°
2026-04-21 22:35 38.61486 -0.54541 14987 ft 351 kts 186°
2026-04-21 22:35 38.59064 -0.54714 14681 ft 345 kts 186°
2026-04-21 22:35 38.56679 -0.54884 14293 ft 343 kts 186°
2026-04-21 22:36 38.51968 -0.55222 13566 ft 336 kts 186°
2026-04-21 22:36 38.49642 -0.55388 13188 ft 333 kts 186°
2026-04-21 22:36 38.47344 -0.55550 12828 ft 329 kts 186°
2026-04-21 22:37 38.45103 -0.55709 12504 ft 325 kts 186°
2026-04-21 22:37 38.42856 -0.55868 12161 ft 322 kts 186°
2026-04-21 22:37 38.40633 -0.56025 11834 ft 319 kts 186°
2026-04-21 22:37 38.38429 -0.56180 11504 ft 314 kts 185°
2026-04-21 22:38 38.36278 -0.56331 11170 ft 305 kts 185°
2026-04-21 22:38 38.34195 -0.56478 10858 ft 295 kts 185°
2026-04-21 22:38 38.32170 -0.56620 10557 ft 287 kts 185°
2026-04-21 22:38 38.30204 -0.56759 10267 ft 279 kts 185°
2026-04-21 22:39 38.28296 -0.56892 10079 ft 268 kts 185°
2026-04-21 22:39 38.26471 -0.57008 9915 ft 259 kts 182°
2026-04-21 22:39 38.24660 -0.56964 9698 ft 264 kts 179°
2026-04-21 22:39 38.22773 -0.56862 9482 ft 277 kts 179°
2026-04-21 22:40 38.20824 -0.56756 9235 ft 283 kts 179°
2026-04-21 22:40 38.18845 -0.56660 8977 ft 287 kts 179°
2026-04-21 22:40 38.16841 -0.56568 8720 ft 288 kts 179°
2026-04-21 22:40 38.14847 -0.56480 8465 ft 285 kts 179°
2026-04-21 22:41 38.12893 -0.56646 8192 ft 280 kts 199°
2026-04-21 22:41 38.12235 -0.56976 8108 ft 276 kts 210°
2026-04-21 22:41 38.10820 -0.58433 7915 ft 268 kts 231°
2026-04-21 22:41 38.09792 -0.60393 7701 ft 267 kts 242°
2026-04-21 22:42 38.08889 -0.62454 7473 ft 267 kts 243°
2026-04-21 22:42 38.08003 -0.64524 7236 ft 267 kts 243°
2026-04-21 22:42 38.07118 -0.66587 7007 ft 265 kts 243°
2026-04-21 22:42 38.06232 -0.68635 6789 ft 264 kts 243°
2026-04-21 22:43 38.05345 -0.70671 6553 ft 263 kts 243°
2026-04-21 22:43 38.04458 -0.72699 6325 ft 262 kts 243°
2026-04-21 22:43 38.03572 -0.74718 6090 ft 261 kts 243°
2026-04-21 22:43 38.02687 -0.76728 5863 ft 260 kts 243°
2026-04-21 22:44 38.01803 -0.78732 5631 ft 260 kts 243°
2026-04-21 22:44 38.00919 -0.80735 5412 ft 260 kts 243°
2026-04-21 22:44 38.00034 -0.82738 5190 ft 261 kts 243°
2026-04-21 22:44 37.99147 -0.84744 4956 ft 261 kts 243°
2026-04-21 22:45 37.98261 -0.86746 4739 ft 260 kts 243°
2026-04-21 22:45 37.97380 -0.88732 4500 ft 257 kts 243°
2026-04-21 22:45 37.96509 -0.90697 4304 ft 255 kts 243°
2026-04-21 22:45 37.95641 -0.92643 4087 ft 253 kts 240°
2026-04-21 22:46 37.94516 -0.94336 3882 ft 251 kts 224°
2026-04-21 22:46 37.93253 -0.95859 3627 ft 250 kts 225°
2026-04-21 22:46 37.92028 -0.97394 3410 ft 244 kts 225°
2026-04-21 22:46 37.90866 -0.98877 3156 ft 230 kts 226°
2026-04-21 22:47 37.89795 -1.00253 2928 ft 215 kts 226°
2026-04-21 22:47 37.88783 -1.01555 2718 ft 200 kts 226°
2026-04-21 22:47 37.87848 -1.02759 2562 ft 183 kts 226°
2026-04-21 22:47 37.86997 -1.03857 2521 ft 166 kts 226°
2026-04-21 22:48 37.86196 -1.04891 2425 ft 162 kts 225°
2026-04-21 22:48 37.85437 -1.05841 2232 ft 148 kts 225°
2026-04-21 22:48 37.84727 -1.06745 1880 ft 143 kts 226°
2026-04-21 22:48 37.84041 -1.07635 1567 ft 142 kts 227°
2026-04-21 22:49 37.83346 -1.08531 1330 ft 143 kts 226°
2026-04-21 22:49 37.82669 -1.09425 1084 ft 140 kts 226°
2026-04-21 22:49 37.81992 -1.10304 855 ft 139 kts 226°
2026-04-21 22:49 37.81323 -1.11168 701 ft 136 kts 226°
2026-04-21 22:50 37.80672 -1.12010 643 ft 122 kts 225°
2026-04-21 22:50 37.80222 -1.12590 644 ft 73 kts 225°
2026-04-21 22:50 37.80005 -1.12878 644 ft 29 kts 231°
2026-04-21 22:50 37.79911 -1.13096 646 ft 28 kts 252°
2026-04-21 22:51 37.79910 -1.13253 650 ft 11 kts 325°
2026-04-21 22:51 37.79974 -1.13218 648 ft 12 kts 45°
2026-04-21 22:51 37.80031 -1.13144 647 ft 12 kts 45°
2026-04-21 22:51 37.80088 -1.13081 647 ft 10 kts 20°
2026-04-21 22:52 37.80148 -1.13120 646 ft 10 kts 314°
2026-04-21 22:52 37.80207 -1.13159 646 ft 10 kts
2026-04-21 22:52 37.80259 -1.13105 646 ft 10 kts 45°
2026-04-21 22:52 37.80305 -1.13045 647 ft 9 kts 46°
2026-04-21 22:53 37.80340 -1.13000 646 ft 3 kts 46°
2026-04-21 22:53 37.80361 -1.12996 646 ft 4 kts 341°
2026-04-21 22:53 37.80387 -1.13026 646 ft 6 kts 315°
2026-04-21 22:53 37.80397 -1.13038 646 ft 1 kts 315°
2026-04-21 22:54 37.80404 -1.13047 646 ft 1 kts 315°
2026-04-21 22:54 37.80405 -1.13048 646 ft 0 kts 315°